FSF120A LGAV-LOWZ

Flight info

Callsign FSF120A
Flight time N/A
Altitude 30000
Route ROPOX B1 SIGFO DCT BITLA DCT POD L604 BOSNA L608 KOMAR DCT EBITI DCT OBEDI DCT NANIT
Aircraft PC12/L-SDFGRWY/S

Departure

Time N/A
Airport Athens Eleftherios Venizelos International Airport (LGAV)

Arrival

Time 2026-04-24 11:49
Airport Zell am See Airfield (LOWZ)
Time Latitude Longitude Altitude Speed Heading
2026-04-24 11:21 46.39294 14.56109 30079 ft 268 kts 327°
2026-04-24 11:21 46.40706 14.54295 30076 ft 273 kts 327°
2026-04-24 11:21 46.42126 14.52467 30076 ft 272 kts 326°
2026-04-24 11:21 46.43508 14.50683 30074 ft 267 kts 326°
2026-04-24 11:22 46.44902 14.48892 30085 ft 269 kts 326°
2026-04-24 11:22 46.46308 14.47083 30096 ft 272 kts 326°
2026-04-24 11:22 46.47727 14.45252 30101 ft 273 kts 326°
2026-04-24 11:22 46.49155 14.43403 30102 ft 271 kts 326°
2026-04-24 11:23 46.50541 14.41612 30094 ft 270 kts 326°
2026-04-24 11:23 46.51926 14.39817 30091 ft 263 kts 327°
2026-04-24 11:23 46.53290 14.38053 30099 ft 264 kts 327°
2026-04-24 11:23 46.54669 14.36273 30072 ft 267 kts 326°
2026-04-24 11:24 46.56060 14.34469 29798 ft 266 kts 326°
2026-04-24 11:24 46.57437 14.32681 29450 ft 264 kts 326°
2026-04-24 11:24 46.58801 14.30912 29101 ft 263 kts 326°
2026-04-24 11:24 46.60172 14.29137 28762 ft 265 kts 326°
2026-04-24 11:25 46.61541 14.27354 28414 ft 263 kts 326°
2026-04-24 11:25 46.62911 14.25572 28065 ft 265 kts 326°
2026-04-24 11:25 46.64289 14.23779 27717 ft 265 kts 325°
2026-04-24 11:25 46.65657 14.21997 27373 ft 263 kts 325°
2026-04-24 11:26 46.67015 14.20226 27020 ft 262 kts 325°
2026-04-24 11:26 46.68371 14.18458 26671 ft 261 kts 325°
2026-04-24 11:26 46.69716 14.16703 26332 ft 259 kts 325°
2026-04-24 11:26 46.71062 14.14945 25988 ft 259 kts 324°
2026-04-24 11:27 46.72402 14.13194 25644 ft 259 kts 324°
2026-04-24 11:27 46.73741 14.11443 25301 ft 257 kts 324°
2026-04-24 11:27 46.75076 14.09696 24966 ft 261 kts 324°
2026-04-24 11:27 46.76450 14.07902 24619 ft 266 kts 323°
2026-04-24 11:28 46.77837 14.06082 24267 ft 271 kts 323°
2026-04-24 11:28 46.79266 14.04208 23900 ft 276 kts 323°
2026-04-24 11:28 46.80724 14.02294 23502 ft 289 kts 323°
2026-04-24 11:28 46.82234 14.00312 23088 ft 290 kts 322°
2026-04-24 11:29 46.83704 13.98368 22703 ft 274 kts 322°
2026-04-24 11:29 46.85104 13.96525 22338 ft 274 kts 323°
2026-04-24 11:29 46.86524 13.94663 21980 ft 274 kts 323°
2026-04-24 11:29 46.87941 13.92797 21621 ft 275 kts 322°
2026-04-24 11:30 46.89376 13.90905 21259 ft 282 kts 322°
2026-04-24 11:30 46.90814 13.89008 20890 ft 274 kts 322°
2026-04-24 11:30 46.92233 13.87131 20526 ft 282 kts 322°
2026-04-24 11:30 46.93689 13.85212 20152 ft 278 kts 322°
2026-04-24 11:31 46.95107 13.83332 19788 ft 276 kts 322°
2026-04-24 11:31 46.96532 13.81447 19426 ft 278 kts 322°
2026-04-24 11:31 46.97994 13.79515 19057 ft 285 kts 322°
2026-04-24 11:31 46.99477 13.77547 18687 ft 288 kts 322°
2026-04-24 11:32 47.00966 13.75568 18285 ft 291 kts 322°
2026-04-24 11:32 47.02467 13.73581 17874 ft 289 kts 322°
2026-04-24 11:32 47.03915 13.71648 17502 ft 277 kts 322°
2026-04-24 11:32 47.05338 13.69755 17141 ft 277 kts 322°
2026-04-24 11:33 47.06768 13.67861 16781 ft 277 kts 322°
2026-04-24 11:33 47.08194 13.65961 16416 ft 277 kts 322°
2026-04-24 11:33 47.09630 13.64083 16056 ft 276 kts 324°
2026-04-24 11:33 47.11136 13.62344 15669 ft 275 kts 327°
2026-04-24 11:34 47.12684 13.60830 15314 ft 270 kts 333°
2026-04-24 11:34 47.14308 13.59455 14955 ft 270 kts 334°
2026-04-24 11:34 47.15950 13.58112 14598 ft 269 kts 334°
2026-04-24 11:34 47.17598 13.56775 14245 ft 269 kts 334°
2026-04-24 11:35 47.19241 13.55446 13891 ft 269 kts 334°
2026-04-24 11:35 47.20879 13.54127 13522 ft 267 kts 334°
2026-04-24 11:35 47.22499 13.52834 13225 ft 265 kts 334°
2026-04-24 11:35 47.24123 13.51554 12901 ft 264 kts 334°
2026-04-24 11:36 47.25740 13.50279 12554 ft 262 kts 334°
2026-04-24 11:36 47.27347 13.49021 12229 ft 262 kts 334°
2026-04-24 11:36 47.28955 13.47770 11902 ft 261 kts 334°
2026-04-24 11:36 47.30532 13.46452 11550 ft 261 kts 327°
2026-04-24 11:37 47.31817 13.44558 11217 ft 264 kts 310°
2026-04-24 11:37 47.32827 13.42377 10907 ft 246 kts 306°
2026-04-24 11:37 47.33725 13.40284 10575 ft 244 kts 306°
2026-04-24 11:37 47.34619 13.38182 10309 ft 220 kts 305°
2026-04-24 11:38 47.35202 13.36294 10158 ft 202 kts 293°
2026-04-24 11:38 47.35632 13.34299 10129 ft 204 kts 291°
2026-04-24 11:38 47.36039 13.32307 10019 ft 202 kts 289°
2026-04-24 11:38 47.36373 13.30297 9896 ft 204 kts 287°
2026-04-24 11:39 47.36704 13.28264 9751 ft 201 kts 288°
2026-04-24 11:39 47.37026 13.26296 9616 ft 197 kts 288°
2026-04-24 11:39 47.37348 13.24296 9484 ft 200 kts 287°
2026-04-24 11:39 47.37627 13.22301 9353 ft 199 kts 284°
2026-04-24 11:40 47.37879 13.20303 9226 ft 198 kts 284°
2026-04-24 11:40 47.38127 13.18316 9089 ft 196 kts 284°
2026-04-24 11:40 47.38381 13.16330 8962 ft 199 kts 284°
2026-04-24 11:40 47.38636 13.14339 8833 ft 195 kts 282°
2026-04-24 11:41 47.38858 13.12360 8716 ft 196 kts 282°
2026-04-24 11:41 47.39055 13.10348 8565 ft 197 kts 281°
2026-04-24 11:41 47.39242 13.08362 8443 ft 195 kts 282°
2026-04-24 11:41 47.39433 13.06399 8301 ft 193 kts 282°
2026-04-24 11:42 47.39629 13.04412 8228 ft 199 kts 281°
2026-04-24 11:42 47.39825 13.02414 8144 ft 193 kts 282°
2026-04-24 11:42 47.40020 13.00448 8054 ft 192 kts 281°
2026-04-24 11:42 47.40216 12.98504 7996 ft 196 kts 281°
2026-04-24 11:43 47.40416 12.96525 7860 ft 184 kts 281°
2026-04-24 11:43 47.40596 12.94654 7688 ft 196 kts 281°
2026-04-24 11:43 47.40779 12.92789 7527 ft 171 kts 281°
2026-04-24 11:43 47.40957 12.91045 7363 ft 175 kts 281°
2026-04-24 11:44 47.41137 12.89287 7193 ft 174 kts 281°
2026-04-24 11:44 47.41323 12.87531 6993 ft 171 kts 279°
2026-04-24 11:44 47.41176 12.85797 6781 ft 167 kts 253°
2026-04-24 11:44 47.40601 12.84408 6544 ft 156 kts 225°
2026-04-24 11:45 47.39623 12.83766 6306 ft 151 kts 197°
2026-04-24 11:45 47.38592 12.83350 6091 ft 164 kts 198°
2026-04-24 11:45 47.37562 12.82912 5713 ft 151 kts 198°
2026-04-24 11:45 47.36411 12.82415 5320 ft 182 kts 198°
2026-04-24 11:46 47.35187 12.81902 4944 ft 176 kts 198°
2026-04-24 11:46 47.34007 12.81391 4572 ft 177 kts 202°
2026-04-24 11:46 47.32881 12.80875 4252 ft 163 kts 200°
2026-04-24 11:46 47.32214 12.80487 4095 ft 145 kts 209°
2026-04-24 11:47 47.31099 12.79628 3896 ft 137 kts 208°
2026-04-24 11:47 47.30252 12.78965 3847 ft 138 kts 211°
2026-04-24 11:47 47.29644 12.78024 3731 ft 121 kts 249°
2026-04-24 11:47 47.29485 12.76919 3720 ft 104 kts 267°
2026-04-24 11:48 47.29423 12.76222 3668 ft 103 kts 266°
2026-04-24 11:48 47.28979 12.75468 3565 ft 116 kts 187°
2026-04-24 11:48 47.28595 12.76236 3201 ft 111 kts 63°
2026-04-24 11:48 47.28838 12.77229 2859 ft 97 kts 71°
2026-04-24 11:49 47.28995 12.78187 2642 ft 98 kts 71°
2026-04-24 11:49 47.29159 12.79124 2489 ft 74 kts 74°
2026-04-24 11:49 47.29210 12.79396 2489 ft 17 kts 64°
2026-04-24 11:49 47.29281 12.79393 2488 ft 9 kts 312°
2026-04-24 11:50 47.29275 12.79291 2488 ft 15 kts 259°
2026-04-24 11:50 47.29255 12.79173 2493 ft 16 kts 255°
2026-04-24 11:50 47.29224 12.78998 2493 ft 13 kts 252°
2026-04-24 11:50 47.29204 12.78874 2492 ft 11 kts 255°
2026-04-24 11:51 47.29183 12.78762 2494 ft 12 kts 253°
2026-04-24 11:51 47.29197 12.78735 2494 ft 4 kts 47°
2026-04-24 11:51 47.29211 12.78782 2492 ft 4 kts 76°
2026-04-24 11:51 47.29212 12.78788 2491 ft 0 kts 77°